EW4355 Weather Reports


time (UTC)temp
F
wind
direction
speed
knots
gust
knots
rain 1hr
in
rain 24hr
in
rain mn
in
humidity
%
barometer
mb
20260906040054 88 19 0.9 2.6 0.00 0.00 0.00 64 1012.0
20260906034602 89 5 0.9 4.3 0.00 0.00 0.00 63 1011.8
20260906033053 89 42 0.9 3.5 0.00 0.00 0.00 61 1011.9
20260906031553 89 42 0.9 3.5 0.00 0.00 0.00 60 1011.6
20260906030054 90 13 0.9 4.3 0.00 0.00 0.00 58 1011.5
20260906024555 90 91 0.9 3.5 0.00 0.00 0.00 55 1011.4
20260906023052 91 28 0.9 2.6 0.00 0.00 0.00 54 1011.2
20260906021557 91 360 0.0 3.5 0.00 0.00 0.00 52 1011.0
20260906020050 91 67 0.0 1.7 0.00 0.00 0.00 51 1010.9
20260906014552 91 76 0.0 1.7 0.00 0.00 0.00 50 1010.6
20260906013049 91 80 0.0 0.9 0.00 0.00 0.00 51 1010.5
20260906011548 91 81 0.0 1.7 0.00 0.00 0.00 51 1010.4
20260906010113 91 81 0.0 0.0 0.00 0.00 0.00 51 1010.2
20260906004605 93 81 0.0 1.7 0.00 0.00 0.00 48 1010.1
20260906003047 94 63 0.9 1.7 0.00 0.00 0.00 47 1010.1
20260906001559 94 64 0.0 1.7 0.00 0.00 0.00 45 1010.1
20260906000046 94 65 0.0 4.3 0.00 0.00 0.00 44 1010.0
20260905234546 95 58 0.0 1.7 0.00 0.00 0.00 45 1010.1
20260905233045 95 37 0.0 1.7 0.00 0.00 0.00 46 1010.1
20260905231544 96 38 0.0 3.5 0.00 0.00 0.00 43 1010.2
20260905230043 97 130 0.9 3.5 0.00 0.00 0.00 41 1010.2
20260905224544 98 340 1.7 4.3 0.00 0.00 0.00 38 1010.1
20260905223050 98 278 1.7 4.3 0.00 0.00 0.00 36 1009.9
20260905221543 99 324 0.9 5.2 0.00 0.00 0.00 36 1010.0
20260905220041 99 342 1.7 7.0 0.00 0.00 0.00 34 1010.0
20260905214545 100 278 1.7 7.0 0.00 0.00 0.00 35 1010.0
20260905213039 100 273 1.7 8.7 0.00 0.00 0.00 37 1010.0
20260905211538 101 302 0.9 7.0 0.00 0.00 0.00 35 1010.1
20260905210045 101 331 1.7 5.2 0.00 0.00 0.00 35 1010.3
20260905204535 101 271 3.5 7.0 0.00 0.00 0.00 35 1010.3
20260905203037 100 328 3.5 8.7 0.00 0.00 0.00 37 1010.3
20260905201533 101 305 0.0 7.0 0.00 0.00 0.00 37 1010.5
20260905200051 102 327 0.9 3.5 0.00 0.00 0.00 34 1010.5
20260905194530 102 305 1.7 3.5 0.00 0.00 0.00 35 1010.8
20260905193033 102 26 1.7 7.8 0.00 0.00 0.00 33 1011.0
20260905191525 102 299 0.9 7.8 0.00 0.00 0.00 36 1011.1
20260905190026 102 307 1.7 4.3 0.00 0.00 0.00 36 1011.3
20260905184532 102 360 1.7 5.2 0.00 0.00 0.00 36 1011.4
20260905183026 101 342 1.7 4.3 0.00 0.00 0.00 38 1011.7
20260905181518 100 346 1.7 7.0 0.00 0.00 0.00 39 1011.8
20260905180017 101 229 0.9 6.1 0.00 0.00 0.00 45 1011.9
20260905174518 100 294 0.9 2.6 0.00 0.00 0.00 44 1011.9
20260905173016 99 308 0.9 3.5 0.00 0.00 0.00 46 1012.1
20260905171507 99 303 0.9 3.5 0.00 0.00 0.00 43 1012.2
20260905164559 97 313 0.9 4.3 0.00 0.00 0.00 45 1012.6
20260905163056 97 292 1.7 5.2 0.00 0.00 0.00 46 1012.7
20260905161553 96 292 1.7 4.3 0.00 0.00 0.00 45 1012.9
20260905160051 96 340 0.9 4.3 0.00 0.00 0.00 47 1012.9
20260905154547 95 330 1.7 4.3 0.00 0.00 0.00 48 1012.8
20260905153043 95 294 1.7 3.5 0.00 0.00 0.00 49 1012.9
20260905151541 94 265 0.9 3.5 0.00 0.00 0.00 54 1012.8
20260905150035 93 284 0.0 3.5 0.00 0.00 0.00 53 1012.9
20260905144539 92 292 0.0 2.6 0.00 0.00 0.00 55 1012.8
20260905143034 91 278 0.0 1.7 0.00 0.00 0.00 57 1012.7
20260905141524 89 278 0.0 2.6 0.00 0.00 0.00 60 1012.7
20260905140024 88 307 0.0 2.6 0.00 0.00 0.00 60 1012.8
20260905134527 88 311 0.9 2.6 0.00 0.00 0.00 60 1012.7
20260905133015 87 315 0.0 2.6 0.00 0.00 0.00 62 1012.6
20260905131511 86 276 0.0 1.7 0.00 0.00 0.00 64 1012.5
20260905130006 85 273 0.0 1.7 0.00 0.00 0.00 65 1012.4
20260905124505 83 219 0.0 1.7 0.00 0.00 0.00 67 1012.2
20260905123012 83 219 0.0 0.9 0.00 0.00 0.00 68 1012.3
20260905121501 83 219 0.0 0.9 0.00 0.00 0.00 67 1012.1
20260905120058 82 219 0.0 0.0 0.00 0.00 0.00 67 1012.0
20260905114556 83 219 0.0 0.9 0.00 0.00 0.00 66 1011.7
20260905113055 83 219 0.0 1.7 0.00 0.00 0.00 66 1011.6
20260905111558 83 219 0.0 0.0 0.00 0.00 0.00 65 1011.6
20260905110052 84 219 0.0 0.9 0.00 0.00 0.00 65 1011.5
20260905104552 84 134 0.0 0.9 0.00 0.00 0.00 65 1011.5
20260905103058 84 134 0.0 1.7 0.00 0.00 0.00 64 1011.5
20260905101549 84 128 0.0 0.9 0.00 0.00 0.00 65 1011.5
20260905100057 84 128 0.0 0.0 0.00 0.00 0.00 65 1011.6
20260905094549 84 128 0.0 0.0 0.00 0.00 0.00 65 1011.6
20260905093048 84 128 0.0 0.0 0.00 0.00 0.00 65 1011.5
20260905091552 84 128 0.0 0.0 0.00 0.00 0.00 64 1011.7
20260905090045 85 128 0.0 0.9 0.00 0.00 0.00 64 1011.6
20260905084555 85 128 0.0 0.0 0.00 0.00 0.00 64 1011.7
20260905083044 84 128 0.0 0.9 0.00 0.00 0.00 65 1011.7
20260905081542 84 128 0.0 0.0 0.00 0.00 0.00 65 1011.8
20260905080107 85 128 0.0 0.0 0.00 0.00 0.00 64 1011.9
20260905074538 85 128 0.0 1.7 0.00 0.00 0.00 64 1011.9
20260905073036 85 306 0.0 0.0 0.00 0.00 0.00 63 1012.0
20260905071535 86 308 0.0 0.0 0.00 0.00 0.00 63 1012.1
20260905070040 86 308 0.0 0.9 0.00 0.00 0.00 62 1012.1
20260905064537 85 308 0.0 0.0 0.00 0.00 0.00 62 1012.1
20260905063033 86 308 0.0 0.0 0.00 0.00 0.00 62 1012.1
20260905061531 86 308 0.0 0.0 0.00 0.00 0.00 61 1012.3
20260905060043 86 308 0.0 0.0 0.00 0.00 0.00 60 1012.3
20260905054531 87 308 0.0 0.9 0.00 0.00 0.00 59 1012.3
20260905053028 87 308 0.0 0.0 0.00 0.00 0.00 59 1012.2
20260905051527 87 308 0.0 0.0 0.00 0.00 0.00 59 1012.3
20260905050027 87 308 0.0 0.9 0.00 0.00 0.00 59 1012.2
20260905044527 87 308 0.0 0.0 0.00 0.00 0.00 59 1012.2
20260905043022 87 308 0.0 0.0 0.00 0.00 0.00 59 1012.1
20260905041522 86 308 0.0 0.9 0.00 0.00 0.00 60 1012.1